This is the latest recevied weather packets stored in our database for station/object CE3TDM-10. If no packets are shown the sender has not sent any weather packets the latest 10 day(s).
| Time | Temp. | Humidity | Pressure | Rain* | Wind** | Luminosity | Snow |
|---|---|---|---|---|---|---|---|
| 1788202008 | 28.33° C | 33% | 926.7 hPa | - | - | - | - |
| 1788201114 | 26.11° C | 33% | 926.9 hPa | - | - | - | - |
| 1788200207 | 24.44° C | 32% | 927 hPa | - | - | - | - |
| 1788199314 | 24.44° C | 32% | 927.2 hPa | - | - | - | - |
| 1788198407 | 23.89° C | 31% | 927.3 hPa | - | - | - | - |
| 1788197507 | 24.44° C | 31% | 927.5 hPa | - | - | - | - |
| 1788196607 | 25.56° C | 30% | 927.7 hPa | - | - | - | - |
| 1788195951 | 29.44° C | 29% | 927.9 hPa | - | - | - | - |
| 1788195707 | 29.44° C | 29% | 927.9 hPa | - | - | - | - |
| 1788194807 | 30.56° C | 30% | 928 hPa | - | - | - | - |
| 1788193907 | 30.56° C | 31% | 928.2 hPa | - | - | - | - |
| 1788192107 | 30° C | 31% | 928.2 hPa | - | - | - | - |
| 1788191207 | 28.33° C | 33% | 928.4 hPa | - | - | - | - |
| 1788190307 | 27.78° C | 33% | 928.2 hPa | - | - | - | - |
| 1788187606 | 25° C | 34% | 928.5 hPa | - | - | - | - |
| 1788185806 | 22.78° C | 34% | 928.5 hPa | - | - | - | - |
| 1788184906 | 23.33° C | 34% | 928.6 hPa | - | - | - | - |
| 1788184007 | 23.89° C | 33% | 928.4 hPa | - | - | - | - |
| 1788183106 | 23.89° C | 33% | 928.3 hPa | - | - | - | - |
| 1788181306 | 23.89° C | 33% | 928.2 hPa | - | - | - | - |
| 1788178606 | 23.33° C | 33% | 927.4 hPa | - | - | - | - |
| 1788176805 | 23.33° C | 33% | 927.3 hPa | - | - | - | - |
| 1788173205 | 23.33° C | 33% | 926.2 hPa | - | - | - | - |
| 1788172305 | 23.33° C | 33% | 926.1 hPa | - | - | - | - |
| 1788169605 | 23.33° C | 33% | 926.1 hPa | - | - | - | - |
* Rain since midnight (hover to see other rain measurements)
** Current wind speed in m/s (hover to see current wind gust speed)